Regional Weather Roundup
Issued by NWS State College, PA

Home | Current Version | Previous Version | Text Only | Print | Product List | Glossary On
Versions: 1 2 3 4 5 6 7 8 9 10 11 12 13 14 15 16 17 18 19 20 21 22 23 24 25 26 27 28 29 30 31 32 33 34 35 36 37 38 39 40 41 42 43 44 45 46 47 48 49 50
000
ASUS41 KCTP 201103
RWRCTP

REGIONAL WEATHER ROUNDUP
NATIONAL WEATHER SERVICE STATE COLLEGE PA
700 AM EDT THU JUL 20 2017

Note: "fair" indicates few or no clouds below 12,000 feet with no
significant weather and/or obstructions to visibility.

* = STATION THAT DOES NOT REPORT PRECIPITATION /E.G. RAIN...SNOW...ETC/
    THUNDER OR FOG.

PAZ002>004-007>009-013>016-020>023-029>032-201200-
WESTERN PENNSYLVANIA

CITY           SKY/WX    TMP DP  RH WIND       PRES   REMARKS
ERIE           CLEAR     69  62  78 CALM      30.01F
MEADVILLE      MOCLDY    71  64  78 S6        30.06S
FRANKLIN*      PTCLDY    64  61  88 CALM      30.08R
NEW CASTLE     FAIR      66  66 100 CALM      30.06S FOG
BEAVER COUNTY  CLEAR     68  66  94 S3        30.06  FOG
BUTLER*        CLEAR     68  64  88 CALM      30.07S
PITTSBURGH INT MOCLDY    71  69  93 CALM      30.06S
PITTSBURGH     CLEAR     71  68  90 S5        30.07S FOG
INDIANA*       CLEAR     70  70 100 CALM      30.10S FOG
LATROBE        PTCLDY    68  68 100 S3        30.08S FOG
WASHINGTON CO* MOCLDY    64  64 100 CALM      30.08R VSB<1/4
$$

PAZ004>006-010>012-017>019-024>028-033>037-041-042-045-046-049>053-201200-
CENTRAL PENNSYLVANIA

CITY           SKY/WX    TMP DP  RH WIND       PRES   REMARKS
BRADFORD       MOCLDY    60  60 100 CALM      30.08F FOG
DUBOIS         CLEAR     65  62  90 CALM      30.08S FOG
CLEARFIELD     FOG       64  64 100 N3        30.09R VSB<1/4
JOHNSTOWN      CLEAR     69  67  93 SW6       30.12R FOG
ALTOONA        CLEAR     70  69  97 SW3       30.09R FOG
STATE COLLEGE  MOSUNNY   68  68 100 CALM      30.06S
WILLIAMSPORT   CLOUDY    72  71  97 W6        30.03R FOG
SELINSGROVE    FOG       69  69 100 CALM      30.04R VSB 1/4
FT INDIANTOWN  SUNNY     68  68 100 CALM      30.02R FOG
CAPITAL CITY   SUNNY     74  70  87 CALM      30.02R
HARRISBURG     MOSUNNY   75  72  90 NW6       30.01R FOG
YORK           SUNNY     71  71 100 CALM      30.02R FOG
$$

PAZ038>040-043-044-047-048-054-055-060>062-067>071-201200-
EASTERN PENNSYLVANIA

CITY           SKY/WX    TMP DP  RH WIND       PRES   REMARKS
SCRANTON       SUNNY     68  66  93 CALM      30.05R FOG
MOUNT POCONO   SUNNY     66  66 100 CALM      30.07R FOG
ALLENTOWN      MOSUNNY   74  70  87 CALM      30.01R
QUAKERTOWN*    MOSUNNY   72  72 100 CALM      30.02R
READING        SUNNY     73  72  96 CALM      30.00R
LANCASTER      SUNNY     73  71  93 CALM      30.02R FOG
COATESVILLE    MOSUNNY   73  72  94 CALM      30.04R
POTTSTOWN      MOSUNNY   73  72  96 CALM      30.02R FOG
BLUE BELL      MOSUNNY   72  72 100 CALM      30.02R
DOYLESTOWN     SUNNY     74  72  93 CALM      30.00R
WILLOW GROVE   NOT AVBL
NORTH PHILA    MOSUNNY   81  74  79 CALM      30.00R
PHILADELPHIA   PTSUNNY   79  75  87 W7        29.99R
$$




USA.gov is the U.S. government's official web portal to all federal, state and local government web resources and services.